Flagstaff, AZ

7:50 PM MST on November 22, 2017 (GMT -0700)
Flagstaff Pulliam

Weather History for KFLG - November, 2010

Change the Weather History Date:

Friday, November 19, 2010

  Actual Average Record
Temperature  
Mean Temperature 38 °F 35 °F  
Max Temperature 53 °F 49 °F 69 °F (1949)
Min Temperature 22 °F 22 °F -6 °F (1985)
Degree Days  
Heating Degree Days 27 30  
Month to date heating degree days 471 502  
Since 1 July heating degree days 1161 1385  
Cooling Degree Days 0 0  
Month to date cooling degree days 0 0  
Year to date cooling degree days 160 117  
Moisture  
Dew Point 17 °F    
Average Humidity 45    
Maximum Humidity 65    
Minimum Humidity 24    
Precipitation  
Precipitation 0.00 in 0.05 in 0.49 in (1940)
Month to date precipitation 0.31 1.07  
Year to date precipitation 23.01 19.30  
Snow  
Snow 0.00 in 0.40 in 5.50 in (1979)
Month to date snowfall T 5.3  
Since 1 July snowfall T 6.8  
Snow Depth -    
Sea Level Pressure  
Sea Level Pressure 30.03 in    
Wind  
Wind Speed 6 mph (SW)    
Max Wind Speed 24 mph    
Max Gust Speed 30 mph    
Visibility 10 miles    
Events      
T = Trace of Precipitation, MM = Missing Value Source: NWS Daily Summary

Daily Weather History Graph

Daily Weather History Graph

Search for Another Location

Airport or City:

Trip Planner

Search our weather history database for the weather conditions in past years. The results will help you decide how hot, cold, wet, or windy it might be!

Date:

Astronomy

Nov. 19, 2010 Rise Set
Actual Time 7:05 AM MST 5:18 PM MST
Civil Twilight 6:38 AM MST 5:45 PM MST
Nautical Twilight 6:07 AM MST 6:16 PM MST
Astronomical Twilight 5:37 AM MST 6:46 PM MST
Moon 3:50 PM MST (11/19) 5:08 AM MST (11/19)
Length of Visible Light 11h 07m
Length of Day
10h 13m
Waxing Gibbous, 96% of the Moon is Illuminated
Nov 19
Waxing Gibbous
Nov 21
Full
Nov 28
Last Quarter
Dec 5
New
Dec 13
First Quarter

Hourly Weather History & Observations

Time (MST) Temp. Windchill Dew Point Humidity Pressure Visibility Wind Dir Wind Speed Gust Speed Precip Events Conditions
12:57 AM 23.0 °F - 12.0 °F 63% 30.09 in 10.0 mi Calm Calm - N/A   Clear
1:57 AM 23.0 °F - 12.9 °F 65% 30.07 in 10.0 mi Calm Calm - N/A   Clear
2:57 AM 23.0 °F - 12.0 °F 63% 30.06 in 10.0 mi Calm Calm - N/A   Clear
3:57 AM 24.1 °F - 12.9 °F 62% 30.05 in 10.0 mi Calm Calm - N/A   Clear
4:57 AM 26.1 °F - 14.0 °F 60% 30.07 in 10.0 mi Calm Calm - N/A   Clear
5:57 AM 24.1 °F - 12.9 °F 62% 30.12 in 10.0 mi Calm Calm - N/A   Clear
6:57 AM 24.1 °F - 12.9 °F 62% 30.15 in 10.0 mi Calm Calm - N/A   Clear
7:57 AM 32.0 °F - 18.0 °F 56% 30.14 in 10.0 mi Calm Calm - N/A   Clear
8:57 AM 43.0 °F - 21.0 °F 42% 30.10 in 10.0 mi Calm Calm - N/A   Clear
9:57 AM 48.0 °F - 18.0 °F 30% 30.08 in 10.0 mi SW 10.4 mph - N/A   Clear
10:57 AM 51.1 °F - 18.0 °F 27% 30.06 in 10.0 mi SSW 15.0 mph 23.0 mph N/A   Clear
11:57 AM 51.1 °F - 19.0 °F 28% 30.03 in 10.0 mi SSW 19.6 mph 27.6 mph N/A   Clear
12:57 PM 51.1 °F - 18.0 °F 27% 30.02 in 10.0 mi SSW 18.4 mph 24.2 mph N/A   Clear
1:57 PM 53.1 °F - 18.0 °F 25% 29.98 in 10.0 mi SW 16.1 mph 29.9 mph N/A   Clear
2:57 PM 52.0 °F - 18.0 °F 26% 29.96 in 10.0 mi SW 19.6 mph 28.8 mph N/A   Clear
3:57 PM 48.9 °F - 18.0 °F 29% 29.97 in 10.0 mi SSW 20.7 mph 25.3 mph N/A   Clear
4:57 PM 46.9 °F - 19.0 °F 33% 29.97 in 10.0 mi SW 10.4 mph - N/A   Clear
5:57 PM 39.9 °F - 19.9 °F 45% 30.02 in 10.0 mi Calm Calm - N/A   Clear
6:57 PM 34.0 °F - 19.0 °F 54% 30.05 in 10.0 mi Calm Calm - N/A   Partly Cloudy
7:57 PM 30.9 °F - 18.0 °F 59% 30.01 in 10.0 mi Calm Calm - N/A   Clear
8:57 PM 28.0 °F - 17.1 °F 63% 29.99 in 10.0 mi Calm Calm - N/A   Clear
9:57 PM 30.9 °F 26.2 °F 19.0 °F 61% 29.94 in 10.0 mi Variable 4.6 mph - N/A   Clear
10:57 PM 39.0 °F 33.4 °F 19.9 °F 46% 29.90 in 10.0 mi West 8.1 mph - N/A   Clear
11:57 PM 39.9 °F 33.4 °F 21.0 °F 47% 29.87 in 10.0 mi WSW 10.4 mph - N/A   Clear